FW2132 Weather Reports


Display with metric or nautical units.
time (UTC)temp
F
wind
direction
speed
MPH
gust
MPH
rain 1hr
in
rain 24hr
in
rain mn
in
humidity
%
barometer
mb
20260506201502 77 229 5.0 10.0 0.00 0.00 0.00 29 1012.8
20260506200001 76 169 4.0 10.0 0.00 0.00 0.00 28 1012.9
20260506194557 74 229 3.0 8.0 0.00 0.00 0.00 30 1013.0
20260506193056 74 197 3.0 9.0 0.00 0.00 0.00 29 1013.2
20260506191553 73 167 1.0 5.0 0.00 0.00 0.00 31 1013.4
20260506190048 71 211 3.0 5.0 0.00 0.00 0.00 32 1013.4
20260506184546 69 234 4.0 8.0 0.00 0.00 0.00 34 1013.6
20260506183043 70 263 0.0 7.0 0.00 0.00 0.00 34 1013.7
20260506181538 68 163 3.0 6.0 0.00 0.00 0.00 35 1013.8
20260506180033 68 217 2.0 7.0 0.00 0.00 0.00 34 1014.0
20260506174529 67 250 3.0 6.0 0.00 0.00 0.00 37 1014.1
20260506173024 65 192 3.0 6.0 0.00 0.00 0.00 38 1014.1
20260506171521 64 203 1.0 7.0 0.00 0.00 0.00 41 1014.1
20260506170016 64 198 1.0 6.0 0.00 0.00 0.00 40 1014.2
20260506164511 62 248 1.0 5.0 0.00 0.00 0.00 43 1014.2
20260506163009 59 272 1.0 5.0 0.00 0.00 0.00 46 1014.3
20260506161503 56 248 0.0 4.0 0.00 0.00 0.00 47 1014.4
20260506160110 54 217 0.0 3.0 0.00 0.00 0.00 48 1014.3
20260506154559 53 271 0.0 3.0 0.00 0.00 0.00 48 1014.4
20260506153051 51 169 0.0 1.0 0.00 0.00 0.00 48 1014.4
20260506151548 50 161 0.0 2.0 0.00 0.00 0.00 48 1014.5
20260506150057 49 61 0.0 1.0 0.00 0.00 0.00 48 1014.5
20260506144601 48 61 0.0 1.0 0.00 0.00 0.00 49 1014.5
20260506143052 47 53 0.0 1.0 0.00 0.00 0.00 50 1014.5
20260506141544 46 53 0.0 0.0 0.00 0.00 0.00 50 1014.6
20260506140056 46 53 0.0 3.0 0.00 0.00 0.00 51 1014.3
20260506134539 45 53 0.0 0.0 0.00 0.00 0.00 51 1014.3
20260506133037 45 53 0.0 0.0 0.00 0.00 0.00 51 1014.2
20260506131542 45 53 0.0 0.0 0.00 0.00 0.00 52 1014.0
20260506130034 45 53 0.0 3.0 0.00 0.00 0.00 53 1013.9
20260506124533 45 52 0.0 0.0 0.00 0.00 0.00 54 1013.8
20260506123038 45 52 0.0 0.0 0.00 0.00 0.00 54 1013.7
20260506121528 45 52 0.0 1.0 0.00 0.00 0.00 54 1013.6
20260506120032 45 51 0.0 2.0 0.00 0.00 0.00 55 1013.5
20260506114526 46 51 0.0 4.0 0.00 0.00 0.00 55 1013.5
20260506113032 46 61 0.0 2.0 0.00 0.00 0.00 54 1013.4
20260506111524 46 60 1.0 4.0 0.00 0.00 0.00 54 1013.4
20260506110035 46 60 2.0 4.0 0.00 0.00 0.00 55 1013.5
20260506104526 46 56 2.0 4.0 0.00 0.00 0.00 55 1013.4
20260506103024 46 59 2.0 4.0 0.00 0.00 0.00 55 1013.4
20260506101518 46 45 1.0 4.0 0.00 0.00 0.00 56 1013.4
20260506100020 47 45 0.0 3.0 0.00 0.00 0.00 56 1013.5
20260506094516 47 45 2.0 4.0 0.00 0.01 0.00 56 1013.6
20260506093013 47 45 2.0 4.0 0.00 0.01 0.00 56 1013.7
20260506091511 48 45 1.0 2.0 0.00 0.01 0.00 56 1013.7
20260506090009 48 45 0.0 2.0 0.00 0.01 0.00 56 1013.7
20260506084507 48 45 1.0 4.0 0.00 0.01 0.00 57 1013.6
20260506083006 48 35 1.0 4.0 0.00 0.01 0.00 57 1013.7
20260506081507 49 35 1.0 3.0 0.00 0.01 0.00 56 1013.8
20260506073058 49 40 3.0 4.0 0.00 0.01 0.00 56 1013.7
20260506071555 50 40 2.0 4.0 0.00 0.01 0.00 56 1013.5
20260506061550 51 86 2.0 4.0 0.00 0.01 0.01 55 1012.7
20260506044548 55 209 1.0 5.0 0.00 0.01 0.01 49 1011.9
20260506043040 55 214 3.0 6.0 0.00 0.01 0.01 49 1011.8
20260506041542 56 230 2.0 4.0 0.00 0.01 0.01 49 1011.6
20260506040037 56 203 2.0 7.0 0.00 0.01 0.01 48 1011.4
20260506034545 57 184 0.0 5.0 0.00 0.01 0.01 47 1011.3
20260506033035 57 226 1.0 5.0 0.00 0.01 0.01 46 1011.1
20260506031543 57 199 1.0 7.0 0.00 0.01 0.01 46 1010.9
20260506030032 58 198 2.0 5.0 0.00 0.01 0.01 46 1010.8
20260506024533 58 217 3.0 8.0 0.00 0.01 0.01 50 1010.4
20260506023030 59 221 4.0 7.0 0.00 0.01 0.01 50 1010.1
20260506021530 60 205 2.0 9.0 0.00 0.01 0.01 48 1010.1
20260506020031 61 211 1.0 9.0 0.00 0.01 0.01 46 1010.0
20260506014527 61 185 3.0 9.0 0.00 0.01 0.01 40 1009.8
20260506013027 61 184 2.0 10.0 0.00 0.01 0.01 41 1009.9
20260506011526 62 160 3.0 7.0 0.00 0.01 0.01 40 1009.7
20260506010047 61 155 4.0 10.0 0.00 0.01 0.01 40 1009.7
20260506004525 61 184 3.0 8.0 0.00 0.01 0.01 41 1009.6
20260506003025 61 157 3.0 9.0 0.00 0.01 0.01 41 1009.5
20260506001529 61 169 3.0 11.0 0.00 0.01 0.01 41 1009.5
20260506000023 62 215 5.0 14.0 0.00 0.01 0.01 41 1009.1
20260505234523 61 165 3.0 7.0 0.00 0.01 0.01 43 1009.2
20260505233023 62 228 1.0 9.0 0.00 0.01 0.01 42 1009.2
20260505231522 62 135 4.0 10.0 0.00 0.01 0.01 42 1009.2
20260505230026 62 175 2.0 10.0 0.00 0.01 0.01 42 1009.2
20260505224520 62 154 3.0 10.0 0.00 0.01 0.01 42 1009.3
20260505223019 63 153 2.0 10.0 0.00 0.01 0.01 40 1009.2
20260505221519 64 172 3.0 10.0 0.00 0.01 0.01 38 1009.2
20260505220022 66 221 6.0 10.0 0.00 0.01 0.01 36 1009.2
20260505214517 67 188 6.0 11.0 0.00 0.01 0.01 36 1009.3
20260505213024 67 203 5.0 12.0 0.00 0.01 0.01 35 1009.4
20260505211520 68 234 7.0 12.0 0.00 0.01 0.01 34 1009.5
20260505210017 66 299 3.0 10.0 0.00 0.01 0.01 37 1009.6
20260505204512 67 217 2.0 11.0 0.00 0.01 0.01 36 1009.7
20260505203013 65 300 5.0 10.0 0.00 0.01 0.01 38 1009.7